Flag for U.S.A. Weather past 2 weeks in Hampton, Virginia, U.S.A.

Now
71 °F

Passing clouds.


Feels Like: 76 °F
Forecast: 67 / 75 °F
Wind: 7 mph from Southeast

Location: Langley Air Force Base

Current Time: Sep 18, 2014 at 6:16:27 PM

Latest Report: Sep 18, 2014 at 5:58 PM


Visibility: 10 mi

Pressure: 30.03 "Hg

Humidity: 57%

Dew point: 55 °F

Location of HamptonLocation

Historic Weather in Hampton — Graph

°F

Hampton temperature yesterday

Maximum temperature yesterday: 75 °F (at 11:58 AM)
Minimum temperature yesterday: 65 °F (at 11:58 PM)
Average temperature yesterday: 70 °F

Past Weeks' High & Low Weather Summary

 TemperatureHumidityPressure
High91 °F (Sep 6, 3:02 PM)100% (Sep 3, 10:58 PM)30.29 "Hg (Sep 3, 10:58 PM)
Low58 °F (Sep 18, 5:58 AM)48% (Sep 18, 1:58 PM)29.92 "Hg (Sep 11, 4:58 PM)
Average74 °F84%30.08 "Hg
* Reported Sep 3 4:58 PM — Sep 18 4:58 PM, Hampton, Weather by CustomWeather, © 2014

Note: Actual official high and low records may vary slightly from our data, if they occured in-between our weather recording intervals... More about our weather records

Advertising

Hampton weather history for previous 24 hours

 ConditionsComfort  
Time TempWeatherWind HumidityBarometerVisibility
4:58 PM
Sep 18
75 °FScattered clouds.8 mph50%30.03 "Hg10 mi
3:58 PM74 °FPartly sunny.8 mph52%30.02 "Hg10 mi
2:58 PM76 °FSunny.8 mph51%30.03 "Hg10 mi
1:58 PM75 °FSunny.7 mph48%30.03 "Hg10 mi
10:58 AM74 °FSunny.9 mph52%30.04 "Hg10 mi
9:58 AM72 °FSunny.10 mph58%30.02 "Hg10 mi
8:58 AM70 °FSunny.7 mph70%30.01 "Hg10 mi
7:58 AM63 °FSunny.No wind100%30.01 "Hg10 mi
6:58 AM58 °FClear.No wind100%30.00 "Hg10 mi
5:58 AM58 °FClear.1 mph100%29.98 "Hg10 mi
4:58 AM59 °FClear.No wind100%29.97 "Hg10 mi
3:58 AM60 °FClear.No wind100%29.96 "Hg10 mi
2:58 AM60 °FClear.3 mph100%29.96 "Hg10 mi
1:58 AM60 °FClear.2 mph100%29.97 "Hg9 mi
12:58 AM61 °FClear.No wind99%29.97 "Hg10 mi
11:58 PM
Sep 17
65 °FClear.No wind77%29.99 "Hg10 mi
10:58 PM67 °FClear.6 mph74%29.99 "Hg10 mi
9:58 PM67 °FClear.8 mph75%29.99 "Hg10 mi
8:58 PM68 °FClear.7 mph75%29.98 "Hg10 mi
7:58 PM69 °FSunny.8 mph75%29.98 "Hg10 mi
6:58 PM70 °FSunny.10 mph72%29.97 "Hg10 mi
Weather by CustomWeather, © 2014

See weather overviewHow to use our weather pages